Regional Weather Roundup
Issued by NWS

Home | Current Version | Previous Version | Text Only | Print | Product List | Glossary On
Versions: 1 2 3 4 5 6 7 8 9 10 11 12 13 14 15 16 17 18 19 20 21 22 23 24 25 26 27 28 29 30 31 32 33 34 35 36 37 38 39 40 41 42 43 44 45 46 47 48 49 50
000
ASUS44 KMEG 070710
RWRTN
TENNESSEE HOURLY STATE WEATHER ROUNDUP
NATIONAL WEATHER SERVICE MEMPHIS TN
200 AM CDT TUE JUL 07 2015

TNZ002-004-019-021-049-052-054-088>092-070800-
WEST TENNESSEE

CITY           SKY/WX    TMP DP  RH WIND       PRES   REMARKS
MEMPHIS INTL   MOCLDY    78  73  84 S10       30.04S
NWS MEMPHIS      N/A     78 N/A N/A MISG        N/A
JACKSON        TSTM      70  66  87 W9        30.07S FOG
DYERSBURG        N/A    N/A N/A N/A MISG        N/A
PARIS          CLOUDY    68  66  94 SW3       30.04S
LEXINGTON      CLEAR     73  72  94 S6        30.05F
$$

TNZ008-025-027-028-033-062-065-066-070800-
NORTH MIDDLE TENNESSEE

CITY           SKY/WX    TMP DP  RH WIND       PRES   REMARKS
NASHVILLE      PTCLDY    76  73  91 VRB5      30.07S
CLARKSVILLE    MOCLDY    75  72  90 SW9       30.03F
SMYRNA         CLEAR     74  72  93 S5        30.08F
COOKEVILLE     CLEAR     70  70 100 CALM      30.10S
CROSSVILLE     CLEAR     70  66  87 CALM      30.15S
$$

TNZ061-075-076-078-094-096-097-070800-
SOUTH MIDDLE TENNESSEE

CITY           SKY/WX    TMP DP  RH WIND       PRES   REMARKS
FAYETTEVILLE   CLEAR     72  70  94 S3        30.12S
TULLAHOMA      CLEAR     72  70  94 CALM      30.13S
WINCHESTER     CLEAR     70  70 100 CALM      30.13R
MCMINNVILLE    CLEAR     73  73 100 SW5       30.11S
COLUMBIA       PTCLDY    75  73  94 SW9       30.07S
SHELBYVILLE    CLEAR     73  73 100 S5          N/A
$$

TNZ017-018-042-046-047-070800-
NORTHEAST TENNESSEE

CITY           SKY/WX    TMP DP  RH WIND       PRES   REMARKS
TRI CITIES     PTCLDY    65  64  97 CALM      30.14F FOG
ELIZABETHTON   SUNNY     63  61  94 E3        30.16F
$$

TNZ012-013-036-069-073-074-070800-
CENTRAL EAST TENNESSEE

CITY           SKY/WX    TMP DP  RH WIND       PRES   REMARKS
KNOXVILLE      CLEAR     72  67  84 SW6       30.10F
OAK RIDGE      CLEAR     72  69  90 CALM      30.12S
GATLINBURG     SUNNY     66  64  94 CALM      30.11F
MORRISTOWN     SUNNY     68  68 100 CALM      30.14S
$$

TNZ083-085-099-070800-
SOUTHEAST TENNESSEE

CITY           SKY/WX    TMP DP  RH WIND       PRES   REMARKS
CHATTANOOGA    CLEAR     73  70  90 S3        30.11F
$$

SKY/WX REPORTED AS FAIR MEANS FEW OR NO CLOUDS BELOW
12 THOUSAND FEET.




USA.gov is the U.S. government's official web portal to all federal, state and local government web resources and services.